Time,TemperatureF,DewpointF,PressureIn,WindDirection,WindDirectionDegrees,WindSpeedMPH,WindSpeedGustMPH,Humidity,HourlyPrecipIn,Conditions,Clouds,dailyrainin,SoftwareType,DateUTC
2013-11-24 00:00:00,17.6,11.9,30.75,NNW,344,4.0,6.0,78,0.00,,,0.00,Wunderground v.1.15,2013-11-24 06:00:00,
2013-11-24 00:04:00,17.5,11.8,30.75,NNW,348,4.0,5.0,78,0.00,,,0.00,Wunderground v.1.15,2013-11-24 06:04:00,
2013-11-24 00:10:00,17.4,11.7,30.75,NNW,346,4.0,5.0,78,0.00,,,0.00,Wunderground v.1.15,2013-11-24 06:10:00,
2013-11-24 00:15:00,17.3,11.6,30.74,North,353,3.0,4.0,78,0.00,,,0.00,Wunderground v.1.15,2013-11-24 06:15:00,
2013-11-24 00:21:00,17.2,11.8,30.74,North,11,3.0,3.0,79,0.00,,,0.00,Wunderground v.1.15,2013-11-24 06:21:00,
2013-11-24 00:27:00,17.1,11.7,30.74,North,7,4.0,4.0,79,0.00,,,0.00,Wunderground v.1.15,2013-11-24 06:27:00,
2013-11-24 00:33:00,17.0,11.6,30.74,North,10,3.0,4.0,79,0.00,,,0.00,Wunderground v.1.15,2013-11-24 06:33:00,
2013-11-24 00:39:00,16.9,11.5,30.74,North,357,3.0,6.0,79,0.00,,,0.00,Wunderground v.1.15,2013-11-24 06:39:00,
2013-11-24 00:45:00,16.8,11.4,30.74,North,358,3.0,5.0,79,0.00,,,0.00,Wunderground v.1.15,2013-11-24 06:45:00,
2013-11-24 00:51:00,16.8,11.4,30.74,North,353,4.0,6.0,79,0.00,,,0.00,Wunderground v.1.15,2013-11-24 06:51:00,
2013-11-24 00:57:00,16.7,11.3,30.75,North,351,4.0,6.0,79,0.00,,,0.00,Wunderground v.1.15,2013-11-24 06:57:00,
2013-11-24 01:03:00,16.6,11.5,30.74,North,349,4.0,4.0,80,0.00,,,0.00,Wunderground v.1.15,2013-11-24 07:03:00,
2013-11-24 01:09:00,16.6,11.5,30.74,North,350,4.0,5.0,80,0.00,,,0.00,Wunderground v.1.15,2013-11-24 07:09:00,
2013-11-24 01:15:00,16.5,11.4,30.74,North,356,4.0,5.0,80,0.00,,,0.00,Wunderground v.1.15,2013-11-24 07:15:00,
2013-11-24 01:21:00,16.4,11.3,30.74,North,359,4.0,6.0,80,0.00,,,0.00,Wunderground v.1.15,2013-11-24 07:21:00,
2013-11-24 01:27:00,16.4,11.3,30.74,North,357,5.0,6.0,80,0.00,,,0.00,Wunderground v.1.15,2013-11-24 07:27:00,
2013-11-24 01:33:00,16.4,11.3,30.75,North,354,5.0,5.0,80,0.00,,,0.00,Wunderground v.1.15,2013-11-24 07:33:00,
2013-11-24 01:39:00,16.3,11.2,30.75,North,354,4.0,5.0,80,0.00,,,0.00,Wunderground v.1.15,2013-11-24 07:39:00,
2013-11-24 01:45:00,16.2,11.1,30.75,North,354,3.0,7.0,80,0.00,,,0.00,Wunderground v.1.15,2013-11-24 07:45:00,
2013-11-24 01:51:00,16.2,11.1,30.75,North,354,4.0,6.0,80,0.00,,,0.00,Wunderground v.1.15,2013-11-24 07:51:00,
2013-11-24 01:57:00,16.1,11.0,30.75,North,352,4.0,7.0,80,0.00,,,0.00,Wunderground v.1.15,2013-11-24 07:57:00,
2013-11-24 02:03:00,16.1,11.0,30.75,SE,141,4.0,5.0,80,0.00,,,0.00,Wunderground v.1.15,2013-11-24 08:03:00,
2013-11-24 02:09:00,16.0,10.9,30.75,North,360,4.0,6.0,80,0.00,,,0.00,Wunderground v.1.15,2013-11-24 08:09:00,
2013-11-24 02:15:00,16.0,10.9,30.75,North,356,4.0,6.0,80,0.00,,,0.00,Wunderground v.1.15,2013-11-24 08:15:00,
2013-11-24 02:21:00,15.9,10.5,30.75,North,353,4.0,4.0,79,0.00,,,0.00,Wunderground v.1.15,2013-11-24 08:21:00,
2013-11-24 02:27:00,15.9,10.8,30.75,North,353,3.0,6.0,80,0.00,,,0.00,Wunderground v.1.15,2013-11-24 08:27:00,
2013-11-24 02:33:00,15.7,10.6,30.76,North,352,3.0,4.0,80,0.00,,,0.00,Wunderground v.1.15,2013-11-24 08:33:00,
2013-11-24 02:39:00,15.7,10.9,30.75,North,352,2.0,4.0,81,0.00,,,0.00,Wunderground v.1.15,2013-11-24 08:39:00,
2013-11-24 02:45:00,15.5,10.7,30.75,North,352,1.0,3.0,81,0.00,,,0.00,Wunderground v.1.15,2013-11-24 08:45:00,
2013-11-24 02:51:00,15.4,10.9,30.75,North,355,1.0,1.0,82,0.00,,,0.00,Wunderground v.1.15,2013-11-24 08:51:00,
2013-11-24 02:57:00,15.2,10.7,30.75,North,353,2.0,3.0,82,0.00,,,0.00,Wunderground v.1.15,2013-11-24 08:57:00,
2013-11-24 03:03:00,15.1,10.9,30.75,North,352,2.0,3.0,83,0.00,,,0.00,Wunderground v.1.15,2013-11-24 09:03:00,
2013-11-24 03:09:00,15.0,10.8,30.75,North,352,2.0,3.0,83,0.00,,,0.00,Wunderground v.1.15,2013-11-24 09:09:00,
2013-11-24 03:15:00,14.9,10.7,30.75,North,351,1.0,2.0,83,0.00,,,0.00,Wunderground v.1.15,2013-11-24 09:15:00,
2013-11-24 03:21:00,14.8,10.8,30.75,North,352,1.0,1.0,84,0.00,,,0.00,Wunderground v.1.15,2013-11-24 09:21:00,
2013-11-24 03:27:00,14.8,10.6,30.75,North,354,0.0,1.0,83,0.00,,,0.00,Wunderground v.1.15,2013-11-24 09:27:00,
2013-11-24 03:33:00,14.7,10.7,30.75,North,351,0.0,0.0,84,0.00,,,0.00,Wunderground v.1.15,2013-11-24 09:33:00,
2013-11-24 03:39:00,14.6,10.4,30.75,North,354,1.0,1.0,83,0.00,,,0.00,Wunderground v.1.15,2013-11-24 09:39:00,
2013-11-24 03:45:00,14.4,10.2,30.75,North,352,1.0,3.0,83,0.00,,,0.00,Wunderground v.1.15,2013-11-24 09:45:00,
2013-11-24 03:51:00,14.3,10.4,30.75,North,354,1.0,1.0,84,0.00,,,0.00,Wunderground v.1.15,2013-11-24 09:51:00,
2013-11-24 03:57:00,14.3,10.4,30.75,North,358,0.0,1.0,84,0.00,,,0.00,Wunderground v.1.15,2013-11-24 09:57:00,
2013-11-24 04:03:00,14.2,10.0,30.75,North,354,1.0,2.0,83,0.00,,,0.00,Wunderground v.1.15,2013-11-24 10:03:00,
2013-11-24 04:09:00,14.1,10.2,30.75,North,354,1.0,2.0,84,0.00,,,0.00,Wunderground v.1.15,2013-11-24 10:09:00,
2013-11-24 04:14:00,14.0,10.1,30.75,North,354,1.0,1.0,84,0.00,,,0.00,Wunderground v.1.15,2013-11-24 10:14:00,
2013-11-24 04:20:00,14.0,10.1,30.76,North,355,1.0,2.0,84,0.00,,,0.00,Wunderground v.1.15,2013-11-24 10:20:00,
2013-11-24 04:26:00,13.8,9.9,30.76,North,350,1.0,1.0,84,0.00,,,0.00,Wunderground v.1.15,2013-11-24 10:26:00,
2013-11-24 04:32:00,13.7,10.0,30.76,North,354,1.0,2.0,85,0.00,,,0.00,Wunderground v.1.15,2013-11-24 10:32:00,
2013-11-24 04:38:00,13.7,10.0,30.77,North,354,1.0,3.0,85,0.00,,,0.00,Wunderground v.1.15,2013-11-24 10:38:00,
2013-11-24 04:44:00,13.7,10.0,30.77,North,353,2.0,3.0,85,0.00,,,0.00,Wunderground v.1.15,2013-11-24 10:44:00,
2013-11-24 04:50:00,13.7,9.8,30.77,NNW,348,3.0,3.0,84,0.00,,,0.00,Wunderground v.1.15,2013-11-24 10:50:00,
2013-11-24 04:56:00,13.7,9.8,30.77,NNW,341,3.0,3.0,84,0.00,,,0.00,Wunderground v.1.15,2013-11-24 10:56:00,
2013-11-24 05:01:00,13.8,9.9,30.78,NNW,341,2.0,3.0,84,0.00,,,0.00,Wunderground v.1.15,2013-11-24 11:01:00,
2013-11-24 05:07:00,13.8,9.9,30.77,NNW,341,2.0,3.0,84,0.00,,,0.00,Wunderground v.1.15,2013-11-24 11:07:00,
2013-11-24 05:13:00,13.9,10.0,30.77,NNW,338,3.0,3.0,84,0.00,,,0.00,Wunderground v.1.15,2013-11-24 11:13:00,
2013-11-24 05:18:00,13.9,10.0,30.77,NNW,337,3.0,3.0,84,0.00,,,0.00,Wunderground v.1.15,2013-11-24 11:18:00,
2013-11-24 05:24:00,13.8,9.9,30.77,NNW,335,2.0,3.0,84,0.00,,,0.00,Wunderground v.1.15,2013-11-24 11:24:00,
2013-11-24 05:29:00,13.9,10.0,30.77,NNW,331,2.0,4.0,84,0.00,,,0.00,Wunderground v.1.15,2013-11-24 11:29:00,
2013-11-24 05:35:00,13.8,9.9,30.77,NNW,333,2.0,2.0,84,0.00,,,0.00,Wunderground v.1.15,2013-11-24 11:35:00,
2013-11-24 05:41:00,13.8,9.9,30.77,NNW,331,2.0,2.0,84,0.00,,,0.00,Wunderground v.1.15,2013-11-24 11:41:00,
2013-11-24 05:47:00,13.7,9.8,30.77,NNW,330,2.0,4.0,84,0.00,,,0.00,Wunderground v.1.15,2013-11-24 11:47:00,
2013-11-24 05:53:00,13.8,9.9,30.78,NNW,328,2.0,4.0,84,0.00,,,0.00,Wunderground v.1.15,2013-11-24 11:53:00,
2013-11-24 05:59:00,13.8,9.6,30.78,NW,322,3.0,4.0,83,0.00,,,0.00,Wunderground v.1.15,2013-11-24 11:59:00,
2013-11-24 06:05:00,13.8,9.6,30.78,NW,321,3.0,5.0,83,0.00,,,0.00,Wunderground v.1.15,2013-11-24 12:05:00,
2013-11-24 06:11:00,13.8,9.6,30.78,NW,326,2.0,2.0,83,0.00,,,0.00,Wunderground v.1.15,2013-11-24 12:11:00,
2013-11-24 06:17:00,13.8,9.6,30.78,NW,322,2.0,4.0,83,0.00,,,0.00,Wunderground v.1.15,2013-11-24 12:17:00,
2013-11-24 06:23:00,13.7,9.5,30.78,NW,321,2.0,3.0,83,0.00,,,0.00,Wunderground v.1.15,2013-11-24 12:23:00,
2013-11-24 06:29:00,13.7,9.5,30.78,NW,322,2.0,3.0,83,0.00,,,0.00,Wunderground v.1.15,2013-11-24 12:29:00,
2013-11-24 06:35:00,13.7,9.5,30.78,NW,319,2.0,3.0,83,0.00,,,0.00,Wunderground v.1.15,2013-11-24 12:35:00,
2013-11-24 06:41:00,13.7,9.5,30.78,NW,322,3.0,3.0,83,0.00,,,0.00,Wunderground v.1.15,2013-11-24 12:41:00,
2013-11-24 06:47:00,13.7,9.5,30.78,NW,317,2.0,3.0,83,0.00,,,0.00,Wunderground v.1.15,2013-11-24 12:47:00,
2013-11-24 06:53:00,13.7,9.8,30.78,NW,319,1.0,1.0,84,0.00,,,0.00,Wunderground v.1.15,2013-11-24 12:53:00,
2013-11-24 06:59:00,13.6,9.7,30.79,NW,317,2.0,4.0,84,0.00,,,0.00,Wunderground v.1.15,2013-11-24 12:59:00,
2013-11-24 07:05:00,13.6,9.7,30.79,NW,317,2.0,2.0,84,0.00,,,0.00,Wunderground v.1.15,2013-11-24 13:05:00,
2013-11-24 07:11:00,13.6,9.7,30.79,NW,318,1.0,1.0,84,0.00,,,0.00,Wunderground v.1.15,2013-11-24 13:11:00,
2013-11-24 07:16:00,13.6,9.7,30.79,NW,316,1.0,2.0,84,0.00,,,0.00,Wunderground v.1.15,2013-11-24 13:16:00,
2013-11-24 07:22:00,13.6,9.9,30.79,NW,316,1.0,3.0,85,0.00,,,0.00,Wunderground v.1.15,2013-11-24 13:22:00,
2013-11-24 07:28:00,13.8,10.1,30.79,NW,317,1.0,3.0,85,0.00,,,0.00,Wunderground v.1.15,2013-11-24 13:28:00,
2013-11-24 07:34:00,14.1,10.4,30.79,NW,317,1.0,3.0,85,0.00,,,0.00,Wunderground v.1.15,2013-11-24 13:34:00,
2013-11-24 07:40:00,14.3,10.6,30.80,NW,317,2.0,3.0,85,0.00,,,0.00,Wunderground v.1.15,2013-11-24 13:40:00,
2013-11-24 07:46:00,14.6,10.9,30.79,NW,318,2.0,2.0,85,0.00,,,0.00,Wunderground v.1.15,2013-11-24 13:46:00,
2013-11-24 07:52:00,14.9,11.2,30.80,NW,316,1.0,2.0,85,0.00,,,0.00,Wunderground v.1.15,2013-11-24 13:52:00,
2013-11-24 07:58:00,15.2,11.5,30.79,NW,317,2.0,5.0,85,0.00,,,0.00,Wunderground v.1.15,2013-11-24 13:58:00,
2013-11-24 08:04:00,15.4,11.4,30.80,NW,317,3.0,3.0,84,0.00,,,0.00,Wunderground v.1.15,2013-11-24 14:04:00,
2013-11-24 08:10:00,15.7,11.7,30.80,NNW,329,3.0,4.0,84,0.00,,,0.00,Wunderground v.1.15,2013-11-24 14:10:00,
2013-11-24 08:16:00,15.9,11.4,30.80,NNW,337,4.0,5.0,82,0.00,,,0.00,Wunderground v.1.15,2013-11-24 14:16:00,
2013-11-24 08:22:00,16.1,11.6,30.80,NNW,339,3.0,4.0,82,0.00,,,0.00,Wunderground v.1.15,2013-11-24 14:22:00,
2013-11-24 08:28:00,16.4,11.9,30.81,North,357,3.0,7.0,82,0.00,,,0.00,Wunderground v.1.15,2013-11-24 14:28:00,
2013-11-24 08:34:00,16.7,11.9,30.81,North,354,4.0,5.0,81,0.00,,,0.00,Wunderground v.1.15,2013-11-24 14:34:00,
2013-11-24 08:40:00,16.9,11.8,30.81,North,357,5.0,7.0,80,0.00,,,0.00,Wunderground v.1.15,2013-11-24 14:40:00,
2013-11-24 08:46:00,17.1,12.0,30.81,North,352,5.0,6.0,80,0.00,,,0.00,Wunderground v.1.15,2013-11-24 14:46:00,
2013-11-24 08:52:00,17.6,12.2,30.81,North,352,4.0,6.0,79,0.00,,,0.00,Wunderground v.1.15,2013-11-24 14:52:00,
2013-11-24 08:58:00,17.7,12.0,30.81,NNW,348,5.0,6.0,78,0.00,,,0.00,Wunderground v.1.15,2013-11-24 14:58:00,
2013-11-24 09:04:00,18.1,12.4,30.81,NNW,346,3.0,4.0,78,0.00,,,0.00,Wunderground v.1.15,2013-11-24 15:04:00,
2013-11-24 09:10:00,18.4,11.8,30.80,NNW,346,3.0,5.0,75,0.00,,,0.00,Wunderground v.1.15,2013-11-24 15:10:00,
2013-11-24 09:16:00,18.6,12.0,30.80,NNW,348,3.0,6.0,75,0.00,,,0.00,Wunderground v.1.15,2013-11-24 15:16:00,
2013-11-24 09:22:00,19.1,11.9,30.80,North,353,3.0,6.0,73,0.00,,,0.00,Wunderground v.1.15,2013-11-24 15:22:00,
2013-11-24 09:28:00,19.1,11.6,30.80,North,1,3.0,6.0,72,0.00,,,0.00,Wunderground v.1.15,2013-11-24 15:28:00,
2013-11-24 09:34:00,19.3,12.4,30.80,North,359,3.0,4.0,74,0.00,,,0.00,Wunderground v.1.15,2013-11-24 15:34:00,
2013-11-24 09:40:00,19.2,11.6,30.80,NNE,17,4.0,5.0,72,0.00,,,0.00,Wunderground v.1.15,2013-11-24 15:40:00,
2013-11-24 09:46:00,19.2,11.3,30.79,NNE,19,4.0,5.0,71,0.00,,,0.00,Wunderground v.1.15,2013-11-24 15:46:00,
2013-11-24 09:52:00,19.3,11.1,30.79,NNE,30,4.0,4.0,70,0.00,,,0.00,Wunderground v.1.15,2013-11-24 15:52:00,
2013-11-24 09:58:00,19.3,11.1,30.78,NNE,29,3.0,4.0,70,0.00,,,0.00,Wunderground v.1.15,2013-11-24 15:58:00,
2013-11-24 10:04:00,19.6,11.1,30.78,NNE,30,2.0,5.0,69,0.00,,,0.00,Wunderground v.1.15,2013-11-24 16:04:00,
2013-11-24 10:10:00,19.7,11.5,30.78,NNE,29,4.0,5.0,70,0.00,,,0.00,Wunderground v.1.15,2013-11-24 16:10:00,
2013-11-24 10:16:00,20.0,11.1,30.77,NE,43,4.0,6.0,68,0.00,,,0.00,Wunderground v.1.15,2013-11-24 16:16:00,
2013-11-24 10:22:00,20.3,11.4,30.77,NE,44,4.0,4.0,68,0.00,,,0.00,Wunderground v.1.15,2013-11-24 16:22:00,
2013-11-24 10:28:00,20.6,12.0,30.77,NE,36,3.0,5.0,69,0.00,,,0.00,Wunderground v.1.15,2013-11-24 16:28:00,
2013-11-24 10:34:00,20.7,12.1,30.76,NE,36,4.0,4.0,69,0.00,,,0.00,Wunderground v.1.15,2013-11-24 16:34:00,
2013-11-24 10:40:00,21.1,12.2,30.76,NE,44,3.0,4.0,68,0.00,,,0.00,Wunderground v.1.15,2013-11-24 16:40:00,
2013-11-24 10:46:00,21.5,12.2,30.76,NE,38,3.0,5.0,67,0.00,,,0.00,Wunderground v.1.15,2013-11-24 16:46:00,
2013-11-24 10:52:00,21.5,12.2,30.76,ENE,58,4.0,7.0,67,0.00,,,0.00,Wunderground v.1.15,2013-11-24 16:52:00,
2013-11-24 10:58:00,21.5,12.2,30.76,ENE,60,4.0,7.0,67,0.00,,,0.00,Wunderground v.1.15,2013-11-24 16:58:00,
2013-11-24 11:04:00,21.7,11.7,30.75,NE,44,4.0,6.0,65,0.00,,,0.00,Wunderground v.1.15,2013-11-24 17:04:00,
2013-11-24 11:10:00,21.7,11.7,30.75,NE,46,4.0,6.0,65,0.00,,,0.00,Wunderground v.1.15,2013-11-24 17:10:00,
2013-11-24 11:16:00,22.2,11.9,30.74,NE,48,2.0,4.0,64,0.00,,,0.00,Wunderground v.1.15,2013-11-24 17:16:00,
2013-11-24 11:22:00,22.0,11.3,30.74,NE,47,3.0,3.0,63,0.00,,,0.00,Wunderground v.1.15,2013-11-24 17:22:00,
2013-11-24 11:28:00,22.0,10.2,30.74,NE,48,2.0,3.0,60,0.00,,,0.00,Wunderground v.1.15,2013-11-24 17:28:00,
2013-11-24 11:34:00,22.9,11.4,30.73,NE,48,1.0,5.0,61,0.00,,,0.00,Wunderground v.1.15,2013-11-24 17:34:00,
2013-11-24 11:40:00,23.2,11.7,30.73,ENE,65,2.0,6.0,61,0.00,,,0.00,Wunderground v.1.15,2013-11-24 17:40:00,
2013-11-24 11:46:00,23.0,11.9,30.72,ENE,66,3.0,4.0,62,0.00,,,0.00,Wunderground v.1.15,2013-11-24 17:46:00,
2013-11-24 11:52:00,23.5,12.7,30.71,ENE,66,2.0,2.0,63,0.00,,,0.00,Wunderground v.1.15,2013-11-24 17:52:00,
2013-11-24 11:58:00,24.0,12.9,30.71,NE,46,1.0,6.0,62,0.00,,,0.00,Wunderground v.1.15,2013-11-24 17:58:00,
2013-11-24 12:04:00,23.8,12.3,30.71,NE,35,3.0,6.0,61,0.00,,,0.00,Wunderground v.1.15,2013-11-24 18:04:00,
2013-11-24 12:09:00,24.0,12.5,30.70,NE,43,4.0,7.0,61,0.00,,,0.00,Wunderground v.1.15,2013-11-24 18:09:00,
2013-11-24 12:15:00,23.9,13.1,30.70,NE,43,3.0,4.0,63,0.00,,,0.00,Wunderground v.1.15,2013-11-24 18:15:00,
2013-11-24 12:21:00,24.7,13.5,30.70,ENE,60,1.0,4.0,62,0.00,,,0.00,Wunderground v.1.15,2013-11-24 18:21:00,
2013-11-24 12:27:00,25.1,13.5,30.69,ENE,62,2.0,4.0,61,0.00,,,0.00,Wunderground v.1.15,2013-11-24 18:27:00,
2013-11-24 12:33:00,25.4,12.7,30.69,ENE,61,2.0,3.0,58,0.00,,,0.00,Wunderground v.1.15,2013-11-24 18:33:00,
2013-11-24 12:39:00,25.4,12.3,30.69,ENE,63,2.0,3.0,57,0.00,,,0.00,Wunderground v.1.15,2013-11-24 18:39:00,
2013-11-24 12:45:00,25.8,13.0,30.69,ENE,61,2.0,5.0,58,0.00,,,0.00,Wunderground v.1.15,2013-11-24 18:45:00,
2013-11-24 12:51:00,25.4,12.7,30.68,ENE,61,2.0,2.0,58,0.00,,,0.00,Wunderground v.1.15,2013-11-24 18:51:00,
2013-11-24 12:57:00,26.0,13.6,30.68,ENE,60,2.0,4.0,59,0.00,,,0.00,Wunderground v.1.15,2013-11-24 18:57:00,
2013-11-24 13:03:00,26.3,13.1,30.67,ESE,117,3.0,4.0,57,0.00,,,0.00,Wunderground v.1.15,2013-11-24 19:03:00,
2013-11-24 13:09:00,26.4,12.8,30.67,ESE,119,3.0,4.0,56,0.00,,,0.00,Wunderground v.1.15,2013-11-24 19:09:00,
2013-11-24 13:15:00,26.7,13.5,30.67,South,180,3.0,6.0,57,0.00,,,0.00,Wunderground v.1.15,2013-11-24 19:15:00,
2013-11-24 13:20:00,26.9,13.7,30.67,South,178,4.0,6.0,57,0.00,,,0.00,Wunderground v.1.15,2013-11-24 19:20:00,
2013-11-24 13:26:00,26.9,12.9,30.66,South,176,3.0,4.0,55,0.00,,,0.00,Wunderground v.1.15,2013-11-24 19:26:00,
2013-11-24 13:32:00,27.1,12.6,30.66,South,173,3.0,3.0,54,0.00,,,0.00,Wunderground v.1.15,2013-11-24 19:32:00,
2013-11-24 13:38:00,27.0,12.5,30.66,South,176,3.0,4.0,54,0.00,,,0.00,Wunderground v.1.15,2013-11-24 19:38:00,
2013-11-24 13:44:00,27.4,13.3,30.66,South,190,3.0,5.0,55,0.00,,,0.00,Wunderground v.1.15,2013-11-24 19:44:00,
2013-11-24 13:50:00,27.7,12.8,30.66,South,190,3.0,5.0,53,0.00,,,0.00,Wunderground v.1.15,2013-11-24 19:50:00,
2013-11-24 13:56:00,27.9,12.5,30.66,SSE,160,2.0,6.0,52,0.00,,,0.00,Wunderground v.1.15,2013-11-24 19:56:00,
2013-11-24 14:01:00,27.7,11.5,30.65,SSE,160,3.0,3.0,50,0.00,,,0.00,Wunderground v.1.15,2013-11-24 20:01:00,
2013-11-24 14:06:00,27.8,12.0,30.65,SSE,157,3.0,4.0,51,0.00,,,0.00,Wunderground v.1.15,2013-11-24 20:06:00,
2013-11-24 14:12:00,27.5,11.3,30.65,East,98,2.0,3.0,50,0.00,,,0.00,Wunderground v.1.15,2013-11-24 20:12:00,
2013-11-24 14:17:00,27.1,10.0,30.65,SE,141,4.0,7.0,48,0.00,,,0.00,Wunderground v.1.15,2013-11-24 20:17:00,
2013-11-24 14:23:00,26.8,10.6,30.64,East,87,4.0,5.0,50,0.00,,,0.00,Wunderground v.1.15,2013-11-24 20:23:00,
2013-11-24 14:29:00,27.3,11.1,30.64,East,87,3.0,5.0,50,0.00,,,0.00,Wunderground v.1.15,2013-11-24 20:29:00,
2013-11-24 14:35:00,28.1,11.8,30.64,East,98,2.0,4.0,50,0.00,,,0.00,Wunderground v.1.15,2013-11-24 20:35:00,
2013-11-24 14:41:00,28.3,12.0,30.64,East,98,2.0,3.0,50,0.00,,,0.00,Wunderground v.1.15,2013-11-24 20:41:00,
2013-11-24 14:47:00,28.3,13.3,30.64,ESE,117,3.0,5.0,53,0.00,,,0.00,Wunderground v.1.15,2013-11-24 20:47:00,
2013-11-24 14:53:00,28.4,13.4,30.64,ESE,119,3.0,4.0,53,0.00,,,0.00,Wunderground v.1.15,2013-11-24 20:53:00,
2013-11-24 14:59:00,28.6,14.0,30.64,SE,146,3.0,5.0,54,0.00,,,0.00,Wunderground v.1.15,2013-11-24 20:59:00,
2013-11-24 15:05:00,28.9,12.6,30.64,SE,146,3.0,6.0,50,0.00,,,0.00,Wunderground v.1.15,2013-11-24 21:05:00,
2013-11-24 15:11:00,28.8,12.0,30.63,SSE,150,3.0,4.0,49,0.00,,,0.00,Wunderground v.1.15,2013-11-24 21:11:00,
2013-11-24 15:16:00,28.8,12.5,30.63,SSE,160,3.0,5.0,50,0.00,,,0.00,Wunderground v.1.15,2013-11-24 21:16:00,
2013-11-24 15:22:00,28.6,12.7,30.63,SSE,161,4.0,4.0,51,0.00,,,0.00,Wunderground v.1.15,2013-11-24 21:22:00,
2013-11-24 15:28:00,28.5,12.2,30.63,SE,146,5.0,6.0,50,0.00,,,0.00,Wunderground v.1.15,2013-11-24 21:28:00,
2013-11-24 15:34:00,28.5,11.7,30.63,SSE,153,5.0,6.0,49,0.00,,,0.00,Wunderground v.1.15,2013-11-24 21:34:00,
2013-11-24 15:40:00,28.2,11.9,30.63,SSE,154,4.0,6.0,50,0.00,,,0.00,Wunderground v.1.15,2013-11-24 21:40:00,
2013-11-24 15:46:00,28.2,12.8,30.63,SSE,158,4.0,7.0,52,0.00,,,0.00,Wunderground v.1.15,2013-11-24 21:46:00,
2013-11-24 15:52:00,28.2,12.4,30.63,SSE,167,3.0,8.0,51,0.00,,,0.00,Wunderground v.1.15,2013-11-24 21:52:00,
2013-11-24 15:58:00,27.8,11.1,30.62,SSE,160,4.0,8.0,49,0.00,,,0.00,Wunderground v.1.15,2013-11-24 21:58:00,
2013-11-24 16:04:00,27.5,11.3,30.62,SSE,156,5.0,5.0,50,0.00,,,0.00,Wunderground v.1.15,2013-11-24 22:04:00,
2013-11-24 16:10:00,27.3,11.5,30.62,SSE,158,4.0,5.0,51,0.00,,,0.00,Wunderground v.1.15,2013-11-24 22:10:00,
2013-11-24 16:16:00,27.3,11.5,30.62,SSE,165,3.0,5.0,51,0.00,,,0.00,Wunderground v.1.15,2013-11-24 22:16:00,
2013-11-24 16:22:00,27.1,11.3,30.61,SSE,160,3.0,3.0,51,0.00,,,0.00,Wunderground v.1.15,2013-11-24 22:22:00,
2013-11-24 16:28:00,26.9,12.0,30.60,SSE,163,2.0,4.0,53,0.00,,,0.00,Wunderground v.1.15,2013-11-24 22:28:00,
2013-11-24 16:34:00,26.6,12.6,30.60,SSE,157,2.0,3.0,55,0.00,,,0.00,Wunderground v.1.15,2013-11-24 22:34:00,
2013-11-24 16:40:00,26.3,12.7,30.60,SSE,159,2.0,4.0,56,0.00,,,0.00,Wunderground v.1.15,2013-11-24 22:40:00,
2013-11-24 16:46:00,26.1,12.9,30.60,SSE,160,2.0,3.0,57,0.00,,,0.00,Wunderground v.1.15,2013-11-24 22:46:00,
2013-11-24 16:52:00,26.0,13.6,30.59,SSE,160,2.0,2.0,59,0.00,,,0.00,Wunderground v.1.15,2013-11-24 22:52:00,
2013-11-24 16:58:00,25.7,13.7,30.59,SSE,158,2.0,3.0,60,0.00,,,0.00,Wunderground v.1.15,2013-11-24 22:58:00,
2013-11-24 17:04:00,25.6,14.0,30.59,SSE,161,2.0,3.0,61,0.00,,,0.00,Wunderground v.1.15,2013-11-24 23:04:00,
2013-11-24 17:10:00,25.4,13.4,30.59,SSE,162,2.0,3.0,60,0.00,,,0.00,Wunderground v.1.15,2013-11-24 23:10:00,
2013-11-24 17:16:00,25.3,13.7,30.59,SSE,162,3.0,3.0,61,0.00,,,0.00,Wunderground v.1.15,2013-11-24 23:16:00,
2013-11-24 17:22:00,25.1,13.9,30.59,SSE,163,2.0,2.0,62,0.00,,,0.00,Wunderground v.1.15,2013-11-24 23:22:00,
2013-11-24 17:28:00,25.0,14.2,30.59,SSE,158,2.0,3.0,63,0.00,,,0.00,Wunderground v.1.15,2013-11-24 23:28:00,
2013-11-24 17:34:00,24.8,14.3,30.59,SSE,162,2.0,2.0,64,0.00,,,0.00,Wunderground v.1.15,2013-11-24 23:34:00,
2013-11-24 17:40:00,24.8,14.3,30.59,SSE,161,2.0,3.0,64,0.00,,,0.00,Wunderground v.1.15,2013-11-24 23:40:00,
2013-11-24 17:46:00,24.7,14.2,30.59,SSE,163,2.0,2.0,64,0.00,,,0.00,Wunderground v.1.15,2013-11-24 23:46:00,
2013-11-24 17:52:00,24.6,14.1,30.58,SSE,160,2.0,2.0,64,0.00,,,0.00,Wunderground v.1.15,2013-11-24 23:52:00,
2013-11-24 17:58:00,24.5,14.1,30.58,SSE,162,1.0,2.0,64,0.00,,,0.00,Wunderground v.1.15,2013-11-24 23:58:00,
2013-11-24 18:04:00,24.4,14.0,30.58,SSE,160,2.0,2.0,64,0.00,,,0.00,Wunderground v.1.15,2013-11-25 00:04:00,
2013-11-24 18:10:00,24.3,13.9,30.58,SSE,159,2.0,3.0,64,0.00,,,0.00,Wunderground v.1.15,2013-11-25 00:10:00,
2013-11-24 18:16:00,24.2,14.1,30.58,SSE,165,2.0,2.0,65,0.00,,,0.00,Wunderground v.1.15,2013-11-25 00:16:00,
2013-11-24 18:22:00,24.0,13.9,30.58,SSE,163,1.0,2.0,65,0.00,,,0.00,Wunderground v.1.15,2013-11-25 00:22:00,
2013-11-24 18:28:00,23.9,14.2,30.58,SSE,161,2.0,2.0,66,0.00,,,0.00,Wunderground v.1.15,2013-11-25 00:28:00,
2013-11-24 18:34:00,23.8,14.1,30.57,SSE,160,2.0,2.0,66,0.00,,,0.00,Wunderground v.1.15,2013-11-25 00:34:00,
2013-11-24 18:40:00,23.7,14.3,30.57,SSE,162,1.0,2.0,67,0.00,,,0.00,Wunderground v.1.15,2013-11-25 00:40:00,
2013-11-24 18:46:00,23.6,14.6,30.57,SSE,161,1.0,3.0,68,0.00,,,0.00,Wunderground v.1.15,2013-11-25 00:46:00,
2013-11-24 18:52:00,23.5,14.5,30.57,SSE,160,2.0,2.0,68,0.00,,,0.00,Wunderground v.1.15,2013-11-25 00:52:00,
2013-11-24 18:58:00,23.5,14.5,30.57,SSE,160,1.0,3.0,68,0.00,,,0.00,Wunderground v.1.15,2013-11-25 00:58:00,
2013-11-24 19:04:00,23.5,14.5,30.57,SSE,161,2.0,2.0,68,0.00,,,0.00,Wunderground v.1.15,2013-11-25 01:04:00,
2013-11-24 19:10:00,23.5,14.5,30.57,SSE,162,2.0,3.0,68,0.00,,,0.00,Wunderground v.1.15,2013-11-25 01:10:00,
2013-11-24 19:16:00,23.4,14.7,30.57,SSE,161,2.0,4.0,69,0.00,,,0.00,Wunderground v.1.15,2013-11-25 01:16:00,
2013-11-24 19:22:00,23.4,14.7,30.57,SSE,160,3.0,3.0,69,0.00,,,0.00,Wunderground v.1.15,2013-11-25 01:22:00,
2013-11-24 19:28:00,23.3,14.6,30.56,SSE,160,2.0,4.0,69,0.00,,,0.00,Wunderground v.1.15,2013-11-25 01:28:00,
2013-11-24 19:34:00,23.4,15.1,30.56,SSE,157,2.0,3.0,70,0.00,,,0.00,Wunderground v.1.15,2013-11-25 01:34:00,
2013-11-24 19:40:00,23.4,15.4,30.56,SSE,161,2.0,6.0,71,0.00,,,0.00,Wunderground v.1.15,2013-11-25 01:40:00,
2013-11-24 19:46:00,23.5,15.5,30.56,SSE,160,3.0,4.0,71,0.00,,,0.00,Wunderground v.1.15,2013-11-25 01:46:00,
2013-11-24 19:52:00,23.6,15.9,30.56,SSE,163,3.0,5.0,72,0.00,,,0.00,Wunderground v.1.15,2013-11-25 01:52:00,
2013-11-24 19:58:00,23.5,15.8,30.56,SSE,161,3.0,5.0,72,0.00,,,0.00,Wunderground v.1.15,2013-11-25 01:58:00,
2013-11-24 20:04:00,23.6,15.9,30.56,SSE,163,3.0,4.0,72,0.00,,,0.00,Wunderground v.1.15,2013-11-25 02:04:00,
2013-11-24 20:10:00,23.6,16.2,30.55,SSE,163,2.0,4.0,73,0.00,,,0.00,Wunderground v.1.15,2013-11-25 02:10:00,
2013-11-24 20:16:00,23.5,16.1,30.55,SSE,162,3.0,3.0,73,0.00,,,0.00,Wunderground v.1.15,2013-11-25 02:16:00,
2013-11-24 20:22:00,23.4,16.0,30.55,SSE,161,2.0,2.0,73,0.00,,,0.00,Wunderground v.1.15,2013-11-25 02:22:00,
2013-11-24 20:28:00,23.5,16.4,30.55,SSE,163,3.0,4.0,74,0.00,,,0.00,Wunderground v.1.15,2013-11-25 02:28:00,
2013-11-24 20:34:00,23.5,16.7,30.55,SSE,166,3.0,4.0,75,0.00,,,0.00,Wunderground v.1.15,2013-11-25 02:34:00,
2013-11-24 20:40:00,23.4,16.6,30.55,SSE,158,3.0,6.0,75,0.00,,,0.00,Wunderground v.1.15,2013-11-25 02:40:00,
2013-11-24 20:45:00,23.4,16.6,30.54,SSE,162,3.0,4.0,75,0.00,,,0.00,Wunderground v.1.15,2013-11-25 02:45:00,
2013-11-24 20:51:00,23.4,16.6,30.54,SSE,161,3.0,3.0,75,0.00,,,0.00,Wunderground v.1.15,2013-11-25 02:51:00,
2013-11-24 20:57:00,23.4,16.6,30.54,SSE,160,3.0,5.0,75,0.00,,,0.00,Wunderground v.1.15,2013-11-25 02:57:00,
2013-11-24 21:03:00,23.4,16.6,30.54,SSE,158,3.0,4.0,75,0.00,,,0.00,Wunderground v.1.15,2013-11-25 03:03:00,
2013-11-24 21:09:00,23.4,16.6,30.54,SSE,161,3.0,4.0,75,0.00,,,0.00,Wunderground v.1.15,2013-11-25 03:09:00,
2013-11-24 21:15:00,23.4,16.6,30.54,SSE,162,2.0,4.0,75,0.00,,,0.00,Wunderground v.1.15,2013-11-25 03:15:00,
2013-11-24 21:21:00,23.5,16.4,30.54,SSE,162,3.0,4.0,74,0.00,,,0.00,Wunderground v.1.15,2013-11-25 03:21:00,
2013-11-24 21:27:00,23.7,16.0,30.53,SSE,160,3.0,5.0,72,0.00,,,0.00,Wunderground v.1.15,2013-11-25 03:27:00,
2013-11-24 21:33:00,23.9,15.9,30.53,SSE,160,3.0,4.0,71,0.00,,,0.00,Wunderground v.1.15,2013-11-25 03:33:00,
2013-11-24 21:39:00,23.9,15.9,30.53,SSE,161,3.0,7.0,71,0.00,,,0.00,Wunderground v.1.15,2013-11-25 03:39:00,
2013-11-24 21:45:00,24.0,15.3,30.52,SSE,165,4.0,6.0,69,0.00,,,0.00,Wunderground v.1.15,2013-11-25 03:45:00,
2013-11-24 21:51:00,24.2,15.5,30.52,SSE,161,4.0,4.0,69,0.00,,,0.00,Wunderground v.1.15,2013-11-25 03:51:00,
2013-11-24 21:57:00,24.3,15.6,30.52,SSE,160,3.0,4.0,69,0.00,,,0.00,Wunderground v.1.15,2013-11-25 03:57:00,
2013-11-24 22:03:00,24.3,15.3,30.51,SSE,162,3.0,5.0,68,0.00,,,0.00,Wunderground v.1.15,2013-11-25 04:03:00,
2013-11-24 22:09:00,24.4,15.0,30.51,SSE,160,4.0,10.0,67,0.00,,,0.00,Wunderground v.1.15,2013-11-25 04:09:00,
2013-11-24 22:15:00,24.5,15.1,30.51,SSE,159,4.0,6.0,67,0.00,,,0.00,Wunderground v.1.15,2013-11-25 04:15:00,
2013-11-24 22:21:00,24.6,15.2,30.51,South,173,4.0,5.0,67,0.00,,,0.00,Wunderground v.1.15,2013-11-25 04:21:00,
2013-11-24 22:27:00,24.6,15.2,30.51,South,171,5.0,7.0,67,0.00,,,0.00,Wunderground v.1.15,2013-11-25 04:27:00,
2013-11-24 22:33:00,24.8,15.7,30.51,South,171,5.0,7.0,68,0.00,,,0.00,Wunderground v.1.15,2013-11-25 04:33:00,
2013-11-24 22:39:00,24.8,15.4,30.51,South,170,5.0,7.0,67,0.00,,,0.00,Wunderground v.1.15,2013-11-25 04:39:00,
2013-11-24 22:45:00,24.8,15.4,30.51,SSE,163,5.0,8.0,67,0.00,,,0.00,Wunderground v.1.15,2013-11-25 04:45:00,
2013-11-24 22:51:00,24.9,15.5,30.51,SSE,166,6.0,7.0,67,0.00,,,0.00,Wunderground v.1.15,2013-11-25 04:51:00,
2013-11-24 22:57:00,25.0,15.2,30.50,South,169,6.0,7.0,66,0.00,,,0.00,Wunderground v.1.15,2013-11-25 04:57:00,
2013-11-24 23:01:00,25.1,15.7,30.50,South,172,6.0,6.0,67,0.00,,,0.00,Wunderground v.1.15,2013-11-25 05:01:00,
2013-11-24 23:02:00,25.1,15.7,30.50,SSE,154,6.0,6.0,67,0.00,,,0.00,Wunderground v.1.15,2013-11-25 05:02:00,
2013-11-24 23:03:00,25.1,15.7,30.50,SSE,154,6.0,6.0,67,0.00,,,0.00,Wunderground v.1.15,2013-11-25 05:03:00,
2013-11-24 23:04:00,25.1,15.7,30.50,SSE,156,6.0,8.0,67,0.00,,,0.00,Wunderground v.1.15,2013-11-25 05:04:00,
2013-11-24 23:09:00,25.2,15.8,30.50,SSE,160,6.0,8.0,67,0.00,,,0.00,Wunderground v.1.15,2013-11-25 05:09:00,
2013-11-24 23:10:00,25.2,15.8,30.49,SSE,166,6.0,8.0,67,0.00,,,0.00,Wunderground v.1.15,2013-11-25 05:10:00,
2013-11-24 23:15:00,25.3,15.9,30.49,SSE,158,6.0,8.0,67,0.00,,,0.00,Wunderground v.1.15,2013-11-25 05:15:00,
2013-11-24 23:17:00,25.3,15.9,30.49,SSE,167,7.0,11.0,67,0.00,,,0.00,Wunderground v.1.15,2013-11-25 05:17:00,
2013-11-24 23:23:00,25.4,15.6,30.48,SSE,160,8.0,12.0,66,0.00,,,0.00,Wunderground v.1.15,2013-11-25 05:23:00,
2013-11-24 23:29:00,25.4,15.6,30.48,South,172,8.0,12.0,66,0.00,,,0.00,Wunderground v.1.15,2013-11-25 05:29:00,
2013-11-24 23:35:00,25.5,15.7,30.48,SSE,165,7.0,10.0,66,0.00,,,0.00,Wunderground v.1.15,2013-11-25 05:35:00,
2013-11-24 23:41:00,25.6,15.5,30.48,SSE,164,6.0,6.0,65,0.00,,,0.00,Wunderground v.1.15,2013-11-25 05:41:00,
2013-11-24 23:47:00,25.7,15.9,30.48,SSE,160,5.0,9.0,66,0.00,,,0.00,Wunderground v.1.15,2013-11-25 05:47:00,
2013-11-24 23:53:00,25.7,16.3,30.47,SSE,164,5.0,7.0,67,0.00,,,0.00,Wunderground v.1.15,2013-11-25 05:53:00,
2013-11-24 23:59:00,25.7,16.6,30.46,SSE,154,5.0,7.0,68,0.00,,,0.00,Wunderground v.1.15,2013-11-25 05:59:00,